This is the latest recevied weather packets stored in our database for station/object K4MGY-13. If no packets are shown the sender has not sent any weather packets the latest 10 day(s).
| Time | Temp. | Humidity | Pressure | Rain* | Wind** | Luminosity | Snow |
|---|---|---|---|---|---|---|---|
| 1778197123 | 20.56° C | 36% | 1013.6 hPa | 0 mm | - | - | - |
| 1778196792 | 21.11° C | 35% | 1013.2 hPa | 0 mm | - | - | - |
| 1778196462 | 21.11° C | 35% | 1013.5 hPa | 0 mm | - | - | - |
| 1778196162 | 21.11° C | 34% | 1013.5 hPa | 0 mm | - | - | - |
| 1778195907 | 21.11° C | 34% | 1013.5 hPa | 0 mm | - | - | - |
| 1778195832 | 21.11° C | 34% | 1013.5 hPa | 0 mm | - | - | - |
| 1778195502 | 21.11° C | 35% | 1013.5 hPa | 0 mm | - | - | - |
| 1778195174 | 21.11° C | 36% | 1013.4 hPa | 0 mm | - | - | - |
| 1778194842 | 21.11° C | 35% | 1013.5 hPa | 0 mm | - | - | - |
| 1778194512 | 21.11° C | 36% | 1013.5 hPa | 0 mm | - | - | - |
| 1778194212 | 21.11° C | 36% | 1013.5 hPa | 0 mm | - | - | - |
| 1778193882 | 21.67° C | 35% | 1013.5 hPa | 0 mm | - | - | - |
| 1778193553 | 21.67° C | 34% | 1013.5 hPa | 0 mm | - | - | - |
| 1778193222 | 21.67° C | 39% | 1013.5 hPa | 0 mm | - | - | - |
| 1778192592 | 21.11° C | 36% | 1013.5 hPa | 0 mm | - | - | - |
| 1778192373 | 21.11° C | 36% | 1013.8 hPa | 0 mm | - | - | - |
| 1778192262 | 21.11° C | 36% | 1013.8 hPa | 0 mm | - | - | - |
| 1778191962 | 21.11° C | 35% | 1013.5 hPa | 0 mm | - | - | - |
| 1778191633 | 21.67° C | 36% | 1013.5 hPa | 0 mm | - | - | - |
| 1778191302 | 21.67° C | 38% | 1013.9 hPa | 0 mm | - | - | - |
| 1778190972 | 21.67° C | 36% | 1013.9 hPa | 0 mm | - | - | - |
| 1778190673 | 21.67° C | 34% | 1013.5 hPa | 0 mm | - | - | - |
| 1778190342 | 21.67° C | 35% | 1013.9 hPa | 0 mm | - | - | - |
| 1778190042 | 21.11° C | 37% | 1013.5 hPa | 0 mm | - | - | - |
| 1778189742 | 21.67° C | 36% | 1013.5 hPa | 0 mm | - | - | - |
* Rain latest hour (hover to see other rain measurements)
** Current wind speed in m/s (hover to see current wind gust speed)